This is the latest recevied weather packets stored in our database for station/object KC9Q. If no packets are shown the sender has not sent any weather packets the latest 10 day(s).
| Time | Temp. | Humidity | Pressure | Rain* | Wind** | Luminosity | Snow |
|---|---|---|---|---|---|---|---|
| 1778030623 | 12.22° C | 99% | 1006.5 hPa | 1.78 mm | - | 0 W/m² | - |
| 1778030320 | 12.22° C | 99% | 1006.1 hPa | 1.27 mm | - | 0 W/m² | - |
| 1778030017 | 12.22° C | 99% | 1006.1 hPa | 1.27 mm | - | 0 W/m² | - |
| 1778029714 | 12.22° C | 99% | 1006 hPa | 0 mm | - | 0 W/m² | - |
| 1778029413 | 12.22° C | 99% | 1006 hPa | 0 mm | - | 0 W/m² | - |
| 1778029109 | 12.22° C | 99% | 1005.9 hPa | 0.51 mm | - | 0 W/m² | - |
| 1778028806 | 12.22° C | 99% | 1005.9 hPa | 0.51 mm | - | 0 W/m² | - |
| 1778028502 | 12.22° C | 99% | 1005.9 hPa | 0 mm | - | 0 W/m² | - |
| 1778028200 | 12.22° C | 99% | 1005.7 hPa | 0 mm | - | 1 W/m² | - |
| 1778027895 | 12.22° C | 99% | 1005.9 hPa | 0.51 mm | - | 1 W/m² | - |
| 1778027592 | 12.22° C | 99% | 1006.1 hPa | 0.51 mm | - | 1 W/m² | - |
| 1778027288 | 12.22° C | 99% | 1006.1 hPa | 0 mm | - | 2 W/m² | - |
| 1778026985 | 12.78° C | 99% | 1006 hPa | 0 mm | - | 2 W/m² | - |
| 1778026680 | 12.78° C | 99% | 1005.9 hPa | 1.27 mm | - | 3 W/m² | - |
| 1778026378 | 12.78° C | 99% | 1005.8 hPa | 1.78 mm | - | 3 W/m² | - |
| 1778026075 | 12.78° C | 99% | 1005.7 hPa | 1.78 mm | - | 8 W/m² | - |
| 1778025773 | 12.78° C | 99% | 1006 hPa | 2.29 mm | - | 8 W/m² | - |
| 1778025469 | 12.78° C | 99% | 1006.3 hPa | 1.78 mm | - | 8 W/m² | - |
| 1778025167 | 12.78° C | 99% | 1006.4 hPa | 1.78 mm | - | 6 W/m² | - |
| 1778024863 | 12.78° C | 99% | 1006.2 hPa | 0.51 mm | - | 7 W/m² | - |
| 1778024561 | 12.78° C | 99% | 1006.2 hPa | 0 mm | - | 7 W/m² | - |
| 1778024258 | 12.78° C | 99% | 1005.9 hPa | 0 mm | - | 7 W/m² | - |
| 1778023956 | 13.33° C | 99% | 1005.7 hPa | 0 mm | - | 8 W/m² | - |
| 1778023653 | 13.33° C | 99% | 1005.6 hPa | 0 mm | - | 14 W/m² | - |
| 1778023350 | 13.33° C | 99% | 1005.6 hPa | 0.51 mm | - | 22 W/m² | - |
* Rain latest hour (hover to see other rain measurements)
** Current wind speed in m/s (hover to see current wind gust speed)